Skip Page Navigation
NASA JPL Caltech
NASA Logo - Jet Propulsion Laboratory + View the NASA Portal
+ Center for Near-Earth Object Studies
JPL Home Earth Solar System Stars & Galaxies Technology
JPL Solar System Dynamics
BODIES ORBITS EPHEMERIDES TOOLS PHYSICAL DATA DISCOVERY FAQ SITE MAP
JPL Small-Body Database Browser
Search: [ help ]  
183963 (2004 DJ64)
Classification: TransNeptunian Object          SPK-ID: 2183963
Ephemeris | Orbit Diagram | Orbital Elements | Physical Parameters | Discovery Circumstances ]

[ show orbit diagram ]
Orbital Elements at Epoch 2459000.5 (2020-May-31.0) TDB
Reference: JPL 4 (heliocentric ecliptic J2000)
 Element Value Uncertainty (1-sigma)   Units 
e .1040455458740756 0.00034009  
a 44.35803350163931 0.021529 au
q 39.74277769206072 0.012494 au
i 2.444819002886937 0.0003404 deg
node 103.2283183693486 0.019756 deg
peri 132.7936873091947 0.16477 deg
M 322.0039052958828 0.14933 deg
tp 2470389.702491441492
(2051-Aug-06.20249144)
37.234 TDB
period 107908.7977026926
295.44
78.559
0.2151
d
yr
n .003336150598136237 2.4288e-06 deg/d
Q 48.9732893112179 0.023769 au
  Orbit Determination Parameters
   # obs. used (total)      20  
   data-arc span      3304 days (9.05 yr)  
   first obs. used      2004-02-26  
   last obs. used      2013-03-14  
   planetary ephem.      DE431  
   SB-pert. ephem.      SB431-N16  
   condition code      4  
   norm. resid. RMS      .26567  
   source      ORB  
   producer      Otto Matic  
   solution date      2017-Apr-11 06:28:00  

Additional Information
 Earth MOID = 38.7318 au 
 Jupiter MOID = 34.3486 au 
 T_jup = 5.920 
[ hide covariance matrix ]
Orbital Elements at Epoch 2454169.5 (2007-Mar-10.0) TDB
Reference: JPL 4 (heliocentric ecliptic J2000)
 Element Value Uncertainty (1-sigma)   Units 
e .1056989885353092 0.00034432  
q 39.82745448312439 0.012091 au
tp 2469799.664847378139
(2049-Dec-24.16484738)
36.355 TDB
node 103.2194499030854 0.019698 deg
peri 130.4044202987348 0.16046 deg
i 2.445480924528103 0.00033992 deg
  Orbit Determination Parameters
   # obs. used (total)      20  
   data-arc span      3304 days (9.05 yr)  
   first obs. used      2004-02-26  
   last obs. used      2013-03-14  
   planetary ephem.      DE431  
   SB-pert. ephem.      SB431-N16  
   condition code      4  
   norm. resid. RMS      .26567  
   source      ORB  
   producer      Otto Matic  
   solution date      2017-Apr-11 06:28:00  

Additional Information
 Jupiter MOID = 34.3486 au 
 T_jup = 5.920 
Orbit Covariance (6×6)
  e q tp node peri i
e 1.185570682371554E-7 -3.813776665655868E-8 -.004561736826210568 -6.128148179735661E-8 -1.593016453195407E-5 3.632003595280836E-10
q -3.813776665655868E-8 .0001461866371629187 -.4075233746311579 2.95810338434615E-6 -.00183618574155021 9.111018808815225E-8
tp -.004561736826210568 -.4075233746311579 1321.690471802553 -.005859543809857807 5.771641417133382 -.0002686375928557279
node -6.128148179735661E-8 2.95810338434615E-6 -.005859543809857807 .0003880261838129836 -.0004163468808398804 6.552018040853234E-6
peri -1.593016453195407E-5 -.00183618574155021 5.771641417133382 -.0004163468808398804 .02574721810684723 -7.74018520569735E-6
i 3.632003595280836E-10 9.111018808815225E-8 -.0002686375928557279 6.552018040853234E-6 -7.74018520569735E-6 1.155468970995267E-7

Ephemeris | Orbit Diagram | Orbital Elements | Physical Parameters | Discovery Circumstances ]

Physical Parameter Table
Parameter Symbol Value Units Sigma Reference Notes
absolute magnitude H 6.8   n/a MPO417994  

183963 (2004 DJ64)          Discovered 2004-Feb-26 by Buie, M. W. at Kitt Peak
Reference: 20080420/Numbers.arcLast Updated: 2008-04-23
Ephemeris | Orbit Diagram | Orbital Elements | Physical Parameters | Discovery Circumstances ]
ABOUT SSD CREDITS/AWARDS PRIVACY/COPYRIGHT GLOSSARY LINKS
FirstGov 2020-Aug-11 12:17 UT
(server date/time)  
NASA Home Page
Site Manager:   Ryan S. Park
Webmaster  Alan B. Chamberlin